TimeEST,TemperatureF,Dew PointF,Humidity,Sea Level PressureIn,VisibilityMPH,Wind Direction,Wind SpeedMPH,Gust SpeedMPH,PrecipitationIn,Events,Conditions,WindDirDegrees,DateUTC
12:56 AM,32.0,26.6,80,30.48,10.0,Calm,Calm,-,N/A,,Overcast,0,2013-01-11 05:56:00
1:56 AM,33.1,28.0,82,30.50,10.0,Calm,Calm,-,N/A,,Overcast,0,2013-01-11 06:56:00
2:56 AM,32.0,30.0,92,30.48,9.0,Calm,Calm,-,N/A,,Mostly Cloudy,0,2013-01-11 07:56:00
3:56 AM,30.9,27.0,85,30.46,10.0,Calm,Calm,-,N/A,,Mostly Cloudy,0,2013-01-11 08:56:00
4:56 AM,33.1,27.0,78,30.45,10.0,Calm,Calm,-,N/A,,Mostly Cloudy,0,2013-01-11 09:56:00
5:56 AM,34.0,28.0,79,30.44,10.0,Calm,Calm,-,N/A,,Overcast,0,2013-01-11 10:56:00
6:56 AM,34.0,30.0,85,30.42,8.0,ESE,3.5,-,N/A,,Mostly Cloudy,120,2013-01-11 11:56:00
7:56 AM,34.0,28.0,79,30.43,9.0,Calm,Calm,-,N/A,,Mostly Cloudy,0,2013-01-11 12:56:00
8:56 AM,37.0,27.0,67,30.42,10.0,East,3.5,-,N/A,,Overcast,100,2013-01-11 13:56:00
9:56 AM,37.0,30.9,79,30.38,10.0,Calm,Calm,-,0.00,,Overcast,0,2013-01-11 14:56:00
10:56 AM,39.9,30.0,68,30.36,10.0,SE,5.8,-,N/A,,Overcast,130,2013-01-11 15:56:00
11:56 AM,41.0,30.9,67,30.30,10.0,ESE,9.2,-,N/A,,Overcast,120,2013-01-11 16:56:00
12:56 PM,43.0,32.0,65,30.25,10.0,ESE,10.4,-,N/A,,Overcast,120,2013-01-11 17:56:00
1:56 PM,41.0,34.0,76,30.23,7.0,ESE,9.2,-,0.00,Rain,Light Rain,110,2013-01-11 18:56:00
2:56 PM,39.9,36.0,86,30.22,5.0,SE,4.6,-,0.04,Rain,Light Rain,130,2013-01-11 19:56:00
3:56 PM,39.0,37.9,96,30.18,3.0,SE,5.8,-,0.08,Rain,Heavy Rain,130,2013-01-11 20:56:00
4:56 PM,39.9,39.0,97,30.18,3.0,Calm,Calm,-,0.16,Rain,Rain,0,2013-01-11 21:56:00
5:16 PM,39.2,37.4,93,30.17,3.0,Calm,Calm,-,0.00,,Overcast,0,2013-01-11 22:16:00
5:56 PM,39.0,37.9,96,30.17,3.0,ESE,4.6,-,0.00,Rain,Light Rain,110,2013-01-11 22:56:00
6:01 PM,39.2,39.2,100,30.15,3.0,SE,3.5,-,0.01,Rain,Light Rain,130,2013-01-11 23:01:00
6:11 PM,39.2,37.4,93,30.16,2.0,SE,3.5,-,0.01,Rain,Light Rain,130,2013-01-11 23:11:00
6:19 PM,39.2,37.4,93,30.15,2.0,ESE,4.6,-,0.02,Rain,Rain,120,2013-01-11 23:19:00
6:56 PM,39.9,39.0,97,30.15,2.0,Calm,Calm,-,0.03,,Overcast,0,2013-01-11 23:56:00
7:56 PM,39.9,39.9,100,30.13,2.0,Calm,Calm,-,0.01,,Overcast,0,2013-01-12 00:56:00
8:56 PM,39.9,39.9,100,30.13,2.0,Calm,Calm,-,N/A,,Overcast,0,2013-01-12 01:56:00
9:56 PM,39.0,37.9,96,30.12,2.0,Calm,Calm,-,N/A,,Overcast,0,2013-01-12 02:56:00
10:36 PM,39.2,37.4,93,30.10,1.5,Calm,Calm,-,N/A,,Overcast,0,2013-01-12 03:36:00
10:56 PM,39.0,37.9,96,30.12,1.5,WNW,3.5,-,N/A,,Overcast,300,2013-01-12 03:56:00
11:52 PM,39.2,37.4,93,30.10,0.5,WNW,3.5,-,N/A,Fog,Fog,300,2013-01-12 04:52:00
11:56 PM,39.0,37.9,96,30.11,0.5,Calm,Calm,-,N/A,Fog,Fog,0,2013-01-12 04:56:00